Mount Isa Airport
YBMA : now visible

Airfield :











YOU CAN JOIN US ON...

 
LOGIN :

Register | Disclaimer

   EN    FR    IT 

 









Legend :    VFR   Marginal VFR   IFR   Intensive IFR   Very Intensive IFR
Visi :
Ceiling :
>= 8 km
>= 3000ft
5 to 8 km
1000 to 3000 ft
1500m to 5 km
500 to 1000 ft
800 to 1500m
200 to 500 ft
< 800m
< 200 ft
Symbols :   Thunderstorms  Fog  Heavy snow  Heavy precipitations  Wind > 20 kt






- Airport Elevation : 1121 ft
- IATA code : ISA


YBMA - Mount Isa

CURRENT METAR :
  • 160630Z AUTO 16014KT 9999 // NCD 34/06 Q1013 RF00.0/000.0

EXPIRED METARs :
  • 160600Z AUTO 17013KT 9999 // NCD 34/06 Q1013
  • 160530Z AUTO 15013KT 110V170 9999 // NCD 35/07 Q1013 RF00.0/000.0
  • 160500Z AUTO 17013KT 9999 // NCD 33/07 Q1013 RF00.0/000.0
  • 160430Z AUTO 19011KT 9999 // NCD 34/06 Q1014 RF00.0/000.0

TAF TAF YBMA
Valid from the 16 at 06:00 until the 16 at 18:00 UTC


160434Z 1606/1618 18012KT CAVOK
FM160900 18005KT CAVOK
YBBB FIR / Oceania



MET'MAP, your aeronautical weather chart ! - Copyright ORBIFLY December 2007 - Disclaimer

ORBIFLY MET'MAP TEAM :

Programming & Development : Alexandra Zaïnal
Concept & original design : Baudouin d'Aumeries
Assistance for programming : Marc-Olivier Méhu
Technical & hardware support : Manuel Goepfert

Contact : metmap@orbifly.com




SOURCES & CREDITS :

   NOAA       Earth
Advisory